PSLV R/B, 41791

Orbit data source: Space-Track

PSLV R/B, 41791 is space debris in SSO originally from a launch on Mon, 26 Sep 2016 UTC launched from the Sirharikota (SRI). Debris objects in space refer to the collection of defunct objects orbiting the Earth. Examples of debris include non-operational satellites, rocket bodies, and fragments generated from explosions, collisions, or faulty payload assembly.

Loading next visibility...
Identifier
41791, 2016-059J
Orbit
SSO
Country
Flag of ININ / IND
Related business
Manufacturer
VSSC/LPSC
Mission
Spacecraft
Bus & Motor
PS-4, Unknown motor
Mass
920 kg wet, 920 kg dry
Launch date (UTC)
2016-09-26 (9 years ago)
Launch vehicle
Unknown
Launch site
Sirharikota (SRI)
Object type
Payload
Rocket body
Debris
Shape & HBR
Cyl + Cyl + 2 Nozzle, 1.6 m
Radar Cross Section
3.727 m², Large (>1 m²)

Expand to show TLE details & history
Last TLE update: 13 hours ago

TLE from 13 hours ago
0 PSLV R/B
1 41791U 16059J   26037.00332699  .00000777  00000-0  15697-3 0  9995
2 41791  97.8414  54.5931 0040307 342.8701  17.1139 14.63526743499480
Epoch: 2026-02-06T00:04Z
TLE epoch observation values (Epoch: 2026-02-06T00:04:47.451Z)
Latitude
-0.00005°
Longitude
-82.75205°
Altitude
657.618 km
Speed
7.543 km/s
True Right ascension
03h 38m 22s
True Declination
0° 00' 00"
Sunlit
Object was in daylight at epoch
Visualization orbit readout
Latitude
Unknown
Longitude
Unknown
Altitude
Unknown
Speed
Unknown
Apparent Right ascension
Unknown
Apparent Declination
Unknown
Sunlit
N/A
Visualization observer readout
Local Sidereal Time
15:37:06
Azimuth
Unknown
Elevation
Unknown
Doppler factor
Unknown
Orbital elements
Apogee altitude
707.314 km
Perigee altitude
650.425 km
Semi-major axis
7,057.007 km
Eccentricity
0.00403
Inclination
97.8414°
RAAN
54.5931°
Arg. of periapsis
342.8701°
True anomaly
17.25048°
Mean anomaly
17.1139°
Eccentric anomaly
17.18212°
Mean motion
3.66111 °/min
Orbital period
98.33 mins
BSTAR
0.00015697
Loading maneuver chart data...
Computing Atmospheric mass density...
Loading historical data...
Loading historical data...
Loading historical data...
Loading historical data...
Loading historical data...
Loading historical data...
Loading historical data...

Documentation

Showing up to 5 results
|